KOREASAT 7 (42691 NORAD) Tracking and Keplerian Element Data

This shows tracking and keplerian element data for the satellite.

Feedback or suggestion? Click here.




ElementValue
Catalog42691
NameKOREASAT 7
Epoch Orbit2837
Epoch Day34.63519803
Epoch Year2025
RAAN344.2024
Inclination0.0262
Eccentricity0.0001586
Argument of Perigee351.6863
Mean Anonmoly142.7122
Mean Motion1.00272192
Decay Rate-3.58E-06
L11 42691U 17023A 25034.63519803 -.00000358 00000+0 00000+0 0 9999
L22 42691 0.0262 344.2024 0001586 351.6863 142.7122 1.00272192 28378



Live tracking and technical data element details for KOREASAT 7 (NORAD 42691). KOREASAT 7 can be tracked NOW for your location showing map with azimuth and elevation plus other details from your city location.







IsCatalogInMostPopularTable: catalog: 42691, numindb: 783
Update: records affected: 1



GetName: 42691 KOREASAT 7

Hit Count: updated at: Wed, 30 Apr 2025 17:55:12 GMT